weather.gov     
National Weather Service

Regional Weather Roundup
NWS Homepage
This page is being discontinued on March 12, 2014.
The same data is available at this site. Please update your bookmarks.
Thank you, and we apologize for the inconvenience.
Please send an email to SR-SRH.Webmaster@noaa.gov with any concerns.


Current Version
Previous Version:    01  02  03  04  05  06  07  08  09  10  11  12  13  14  15  16  17  18  19  20  21  22  23  24  25  26  27  28  29  30  
   31  32  33  34  35  36  37  38  39  40  41  42  43  44  45  46  47  48  49  50  51  52  53  54  55  56  57  58  59  60  
[Printable]
801
NZUS01 KOTX 230810
RWROTX
EASTERN WASHINGTON/NORTHERN IDAHO ROUNDUP
NATIONAL WEATHER SERVICE, SPOKANE WA
1200 AM PST SUN NOV 23 2014

Note: "fair" indicated few or no clouds below 12,000 feet with no
significant weather and/or obstructions to visibility.

...NORTHEAST WASHINGTON AND NORTHERN IDAHO PANHANDLE...

CITY           SKY/WX    TMP DP  RH WIND       PRES   REMARKS
SPOKANE INTL   PTCLDY    31  29  92 SW15      29.99R WCI  20
SPOKANE DOWNTO PTCLDY    30  28  92 NE3       30.02R FOG
COEUR D ALENE  CLOUDY    36  30  80 W5        30.00R
DEER PARK      CLEAR     25  24  96 E3        30.00R
SANDPOINT      CLOUDY    34  32  93 SE9       29.97R WCI  26

...SOUTHEAST WASHINGTON AND SOUTHERN IDAHO PANHANDLE...

CITY           SKY/WX    TMP DP  RH WIND       PRES   REMARKS
WALLA WALLA    PTCLDY    40  33  76 S10       30.14R
PULLMAN/MOSCOW CLEAR     36  31  82 W21G26    30.05R
LEWISTON       CLOUDY    42  33  70 SW10      30.07R
LOWELL           N/A     35  34  96 CALM      30.10R

...COLUMBIA BASIN...

CITY           SKY/WX    TMP DP  RH WIND       PRES   REMARKS
EPHRATA        CLEAR     32  28  85 W3        30.05R
MOSES LAKE     CLEAR     37  30  75 SW7       30.06R
TRI CITIES     PTCLDY    41  35  79 SW13      30.14R
HERMISTON      PTCLDY    42  33  70 SW12      30.15R
PENDLETON      PTCLDY    43  32  65 SW16      30.14R

...EAST SLOPES CASCADES...

CITY           SKY/WX    TMP DP  RH WIND       PRES   REMARKS
THE DALLES     CLOUDY    49  38  65 VRB7G20   30.18R
YAKIMA         CLEAR     37  27  67 CALM      30.08R
ELLENSBURG     CLEAR     38  32  79 W12       30.05R
WENATCHEE      CLEAR     42  29  59 NW13      30.03R
OMAK           FOG       19  16  88 VRB3      30.03R VSB 3/4

...SOUTHERN BRITISH COLUMBIA...

CITY           SKY/WX    TMP DP  RH WIND       PRES   REMARKS
PENTICTON      MOCLDY    36  32  87 S10G20    30.00R
CRANBROOK      MOCLDY    28  21  74 CALM      29.82R

...WESTERN MONTANA...

CITY           SKY/WX    TMP DP  RH WIND       PRES   REMARKS
MISSOULA       MOCLDY    35  27  72 NW9       29.89R WCI  28

...NEIGHBORING CITIES...

CITY           SKY/WX    TMP DP  RH WIND       PRES   REMARKS
SEATTLE        CLOUDY    47  42  83 S14G23    30.14R
CALGARY        MOCLDY    28  25  86 W2        29.67R




U.S. Dept. of Commerce
NOAA National Weather Service
1325 East West Highway
Silver Spring, MD 20910
E-mail: w-nws.webmaster@noaa.gov
Page last modified: May 16, 2007
NATIONAL WEATHER SERVICE: for Safety, for Work, for Fun - FOR LIFE